Time,TemperatureF,DewpointF,PressureIn,WindDirection,WindDirectionDegrees,WindSpeedMPH,WindSpeedGustMPH,Humidity,HourlyPrecipIn,Conditions,Clouds,dailyrainin,SoftwareType,DateUTC
2013-03-21 00:01:00,40.0,34.0,30.11,SW,221,0.0,0.0,78,0.00,,,0.47,,2013-03-21 07:01:00,
2013-03-21 00:12:00,40.0,34.0,30.11,SW,221,0.0,0.0,78,0.00,,,0.47,,2013-03-21 07:12:00,
2013-03-21 00:21:00,40.0,33.0,30.12,SW,233,0.0,0.0,76,0.00,,,0.44,,2013-03-21 07:21:00,
2013-03-21 00:32:00,40.0,33.0,30.12,SSW,198,0.0,0.0,77,0.00,,,0.42,,2013-03-21 07:32:00,
2013-03-21 00:41:00,40.0,33.0,30.12,SSW,198,0.0,0.0,77,0.00,,,0.42,,2013-03-21 07:41:00,
2013-03-21 00:52:00,40.0,34.0,30.12,SSW,210,0.0,0.0,78,0.00,,,0.42,,2013-03-21 07:52:00,
2013-03-21 01:01:00,39.0,33.0,30.13,SSW,200,0.0,0.0,80,0.00,,,0.41,,2013-03-21 08:01:00,
2013-03-21 01:12:00,39.0,33.0,30.13,SSW,200,0.0,0.0,80,0.00,,,0.41,,2013-03-21 08:12:00,
2013-03-21 01:22:00,39.0,34.0,30.13,SW,235,0.0,0.0,81,0.00,,,0.40,,2013-03-21 08:22:00,
2013-03-21 01:32:00,40.0,35.0,30.13,South,177,0.0,0.0,81,0.00,,,0.39,,2013-03-21 08:32:00,
2013-03-21 01:42:00,40.0,35.0,30.13,South,177,0.0,0.0,81,0.00,,,0.39,,2013-03-21 08:42:00,
2013-03-21 01:51:00,40.0,35.0,30.14,SW,220,0.0,0.0,81,0.01,,,0.37,,2013-03-21 08:51:00,
2013-03-21 02:01:00,39.0,34.0,30.14,SW,219,0.0,0.0,82,0.01,,,0.35,,2013-03-21 09:01:00,
2013-03-21 02:11:00,39.0,34.0,30.14,SW,219,0.0,0.0,82,0.01,,,0.35,,2013-03-21 09:11:00,
2013-03-21 02:21:00,39.0,34.0,30.15,WSW,238,0.0,0.0,82,0.01,,,0.35,,2013-03-21 09:21:00,
2013-03-21 02:33:00,39.0,34.0,30.15,SW,229,0.0,0.0,83,0.01,,,0.34,,2013-03-21 09:33:00,
2013-03-21 02:43:00,39.0,34.0,30.15,SW,229,0.0,0.0,83,0.01,,,0.34,,2013-03-21 09:43:00,
2013-03-21 02:53:00,39.0,35.0,30.15,SW,231,0.0,0.0,84,0.00,,,0.34,,2013-03-21 09:53:00,
2013-03-21 03:02:00,39.0,35.0,30.15,SW,217,0.0,0.0,84,0.00,,,0.34,,2013-03-21 10:02:00,
2013-03-21 03:12:00,39.0,35.0,30.15,SW,217,0.0,0.0,84,0.00,,,0.34,,2013-03-21 10:12:00,
2013-03-21 03:22:00,39.0,35.0,30.15,SW,224,0.0,0.0,84,0.01,,,0.35,,2013-03-21 10:22:00,
2013-03-21 03:32:00,38.0,34.0,30.16,West,259,0.0,0.0,85,0.02,,,0.35,,2013-03-21 10:32:00,
2013-03-21 03:42:00,38.0,34.0,30.16,West,259,0.0,0.0,85,0.02,,,0.35,,2013-03-21 10:42:00,
2013-03-21 03:52:00,38.0,34.0,30.16,SSW,205,0.0,0.0,85,0.02,,,0.35,,2013-03-21 10:52:00,
2013-03-21 04:02:00,38.0,34.0,30.15,SSW,201,0.0,0.0,86,0.02,,,0.35,,2013-03-21 11:02:00,
2013-03-21 04:12:00,38.0,34.0,30.15,SSW,201,0.0,0.0,86,0.02,,,0.35,,2013-03-21 11:12:00,
2013-03-21 04:22:00,38.0,34.0,30.15,SSE,158,0.0,0.0,86,0.01,,,0.35,,2013-03-21 11:22:00,
2013-03-21 04:32:00,38.0,34.0,30.16,SSW,209,0.0,0.0,86,0.00,,,0.33,,2013-03-21 11:32:00,
2013-03-21 04:42:00,38.0,34.0,30.16,SSW,209,0.0,0.0,86,0.00,,,0.33,,2013-03-21 11:42:00,
2013-03-21 04:52:00,38.0,34.0,30.15,WSW,242,0.0,0.0,86,0.00,,,0.32,,2013-03-21 11:52:00,
2013-03-21 05:01:00,38.0,34.0,30.15,West,259,0.0,0.0,86,0.00,,,0.31,,2013-03-21 12:01:00,
2013-03-21 05:11:00,38.0,34.0,30.15,West,259,0.0,0.0,86,0.00,,,0.31,,2013-03-21 12:11:00,
2013-03-21 05:21:00,38.0,34.0,30.16,SSW,210,0.0,0.0,86,0.00,,,0.29,,2013-03-21 12:21:00,
2013-03-21 05:32:00,38.0,34.0,30.16,SW,233,0.0,0.0,86,0.00,,,0.29,,2013-03-21 12:32:00,
2013-03-21 05:42:00,38.0,34.0,30.16,SW,233,0.0,0.0,86,0.00,,,0.29,,2013-03-21 12:42:00,
2013-03-21 05:52:00,38.0,34.0,30.16,South,191,0.0,0.0,86,0.00,,,0.27,,2013-03-21 12:52:00,
2013-03-21 06:02:00,38.0,34.0,30.16,South,183,0.0,0.0,86,0.00,,,0.27,,2013-03-21 13:02:00,
2013-03-21 06:12:00,38.0,34.0,30.16,South,183,0.0,0.0,86,0.00,,,0.27,,2013-03-21 13:12:00,
2013-03-21 06:22:00,38.0,34.0,30.16,SSW,206,0.0,0.0,85,0.00,,,0.26,,2013-03-21 13:22:00,
2013-03-21 06:31:00,38.0,34.0,30.17,SSW,194,0.0,0.0,85,0.00,,,0.26,,2013-03-21 13:31:00,
2013-03-21 06:42:00,38.0,34.0,30.17,SSW,194,0.0,0.0,85,0.00,,,0.26,,2013-03-21 13:42:00,
2013-03-21 06:52:00,38.0,34.0,30.17,SSW,208,0.0,0.0,85,0.00,,,0.26,,2013-03-21 13:52:00,
2013-03-21 07:02:00,38.0,34.0,30.18,South,187,0.0,0.0,85,0.00,,,0.26,,2013-03-21 14:02:00,
2013-03-21 07:11:00,38.0,34.0,30.18,SSW,206,0.0,0.0,85,0.00,,,0.26,,2013-03-21 14:11:00,
2013-03-21 07:21:00,38.0,34.0,30.18,SSW,206,0.0,0.0,85,0.00,,,0.26,,2013-03-21 14:21:00,
2013-03-21 07:32:00,38.0,34.0,30.18,SW,219,0.0,0.0,84,0.00,,,0.25,,2013-03-21 14:32:00,
2013-03-21 07:42:00,38.0,34.0,30.18,SW,219,0.0,0.0,84,0.00,,,0.25,,2013-03-21 14:42:00,
2013-03-21 07:51:00,38.0,34.0,30.18,SSW,193,0.0,0.0,84,0.00,,,0.23,,2013-03-21 14:51:00,
2013-03-21 08:02:00,38.0,33.0,30.17,SSW,212,0.0,0.0,83,0.00,,,0.20,,2013-03-21 15:02:00,
2013-03-21 08:12:00,38.0,33.0,30.17,SSW,212,0.0,0.0,83,0.00,,,0.20,,2013-03-21 15:12:00,
2013-03-21 08:21:00,38.0,33.0,30.18,WSW,242,0.0,0.0,83,0.00,,,0.18,,2013-03-21 15:21:00,
2013-03-21 08:32:00,38.0,33.0,30.18,SW,214,0.0,0.0,83,0.00,,,0.14,,2013-03-21 15:32:00,
2013-03-21 08:42:00,38.0,33.0,30.18,SW,214,0.0,0.0,83,0.00,,,0.14,,2013-03-21 15:42:00,
2013-03-21 08:52:00,38.0,33.0,30.18,SW,214,0.0,0.0,83,0.00,,,0.14,,2013-03-21 15:52:00,
2013-03-21 09:03:00,39.0,34.0,30.19,WSW,243,0.0,0.0,83,0.00,,,0.07,,2013-03-21 16:03:00,
2013-03-21 09:12:00,39.0,34.0,30.19,WSW,243,0.0,0.0,83,0.00,,,0.07,,2013-03-21 16:12:00,
2013-03-21 09:22:00,39.0,34.0,30.19,SSW,196,0.0,0.0,83,0.00,,,0.06,,2013-03-21 16:22:00,
2013-03-21 09:33:00,39.0,35.0,30.19,SW,229,0.0,0.0,84,0.00,,,0.06,,2013-03-21 16:33:00,
2013-03-21 09:42:00,39.0,35.0,30.19,SW,229,0.0,0.0,84,0.00,,,0.06,,2013-03-21 16:42:00,
2013-03-21 09:52:00,39.0,35.0,30.19,SSW,202,0.0,0.0,84,0.00,,,0.06,,2013-03-21 16:52:00,
2013-03-21 10:01:00,39.0,35.0,30.19,SW,217,0.0,0.0,85,0.00,,,0.06,,2013-03-21 17:01:00,
2013-03-21 10:11:00,39.0,35.0,30.19,SW,217,0.0,0.0,85,0.00,,,0.06,,2013-03-21 17:11:00,
2013-03-21 10:32:00,39.0,35.0,30.21,SW,222,0.0,0.0,85,0.00,,,0.06,,2013-03-21 17:32:00,
2013-03-21 10:42:00,39.0,35.0,30.21,SW,222,0.0,0.0,85,0.00,,,0.06,,2013-03-21 17:42:00,
2013-03-21 10:52:00,40.0,36.0,30.21,SW,223,0.0,0.0,85,0.00,,,0.06,,2013-03-21 17:52:00,
2013-03-21 11:01:00,40.0,36.0,30.21,WSW,248,0.0,0.0,85,0.00,,,0.06,,2013-03-21 18:01:00,
2013-03-21 11:11:00,40.0,36.0,30.21,WSW,248,0.0,0.0,85,0.00,,,0.06,,2013-03-21 18:11:00,
2013-03-21 11:22:00,41.0,37.0,30.21,West,276,0.0,0.0,84,0.00,,,0.06,,2013-03-21 18:22:00,
2013-03-21 11:32:00,41.0,36.0,30.22,WSW,245,0.0,0.0,83,0.00,,,0.06,,2013-03-21 18:32:00,
2013-03-21 11:42:00,41.0,36.0,30.22,WSW,245,0.0,0.0,83,0.00,,,0.06,,2013-03-21 18:42:00,
2013-03-21 11:51:00,41.0,36.0,30.22,WSW,245,0.0,0.0,81,0.00,,,0.06,,2013-03-21 18:51:00,
2013-03-21 12:01:00,42.0,36.0,30.22,West,271,0.0,0.0,80,0.00,,,0.06,,2013-03-21 19:01:00,
2013-03-21 12:11:00,42.0,36.0,30.22,West,271,0.0,0.0,80,0.00,,,0.06,,2013-03-21 19:11:00,
2013-03-21 12:21:00,43.0,37.0,30.22,SSW,192,0.0,0.0,78,0.00,,,0.05,,2013-03-21 19:21:00,
2013-03-21 12:31:00,43.0,36.0,30.22,WSW,238,0.0,0.0,76,0.00,,,0.05,,2013-03-21 19:31:00,
2013-03-21 12:42:00,43.0,36.0,30.22,WSW,238,0.0,0.0,76,0.00,,,0.05,,2013-03-21 19:42:00,
2013-03-21 12:52:00,44.0,35.0,30.21,SSW,208,0.0,0.0,70,0.00,,,0.05,,2013-03-21 19:52:00,
2013-03-21 13:02:00,46.0,36.0,30.21,SW,236,0.0,0.0,67,0.00,,,0.05,,2013-03-21 20:02:00,
2013-03-21 13:12:00,46.0,36.0,30.21,SW,236,0.0,0.0,67,0.00,,,0.05,,2013-03-21 20:12:00,
2013-03-21 13:22:00,46.0,35.0,30.21,SW,231,0.0,0.0,65,0.00,,,0.05,,2013-03-21 20:22:00,
2013-03-21 13:32:00,46.0,35.0,30.21,NW,316,0.0,0.0,65,0.00,,,0.05,,2013-03-21 20:32:00,
2013-03-21 13:42:00,46.0,35.0,30.21,NW,316,0.0,0.0,65,0.00,,,0.05,,2013-03-21 20:42:00,
2013-03-21 13:51:00,41.0,33.0,30.22,WNW,298,0.0,0.0,74,0.00,,,0.05,,2013-03-21 20:51:00,
2013-03-21 14:01:00,42.0,35.0,30.22,NNW,335,0.0,0.0,77,0.00,,,0.05,,2013-03-21 21:01:00,
2013-03-21 14:12:00,42.0,35.0,30.22,NNW,335,0.0,0.0,77,0.00,,,0.05,,2013-03-21 21:12:00,
2013-03-21 14:21:00,45.0,34.0,30.20,West,262,0.0,0.0,65,0.00,,,0.05,,2013-03-21 21:21:00,
2013-03-21 14:32:00,46.0,35.0,30.20,WNW,282,0.0,0.0,65,0.00,,,0.05,,2013-03-21 21:32:00,
2013-03-21 14:42:00,46.0,35.0,30.20,WNW,282,0.0,0.0,65,0.00,,,0.05,,2013-03-21 21:42:00,
2013-03-21 14:53:00,46.0,34.0,30.20,WNW,297,0.0,0.0,62,0.00,,,0.05,,2013-03-21 21:53:00,
2013-03-21 15:02:00,45.0,34.0,30.19,WNW,296,0.0,0.0,64,0.00,,,0.05,,2013-03-21 22:02:00,
2013-03-21 15:12:00,45.0,34.0,30.19,WNW,296,0.0,0.0,64,0.00,,,0.05,,2013-03-21 22:12:00,
2013-03-21 15:22:00,45.0,34.0,30.19,SW,226,0.0,0.0,65,0.00,,,0.05,,2013-03-21 22:22:00,
2013-03-21 15:33:00,45.0,35.0,30.19,SW,219,0.0,0.0,67,0.00,,,0.05,,2013-03-21 22:33:00,
2013-03-21 15:42:00,45.0,35.0,30.19,SW,219,0.0,0.0,67,0.00,,,0.05,,2013-03-21 22:42:00,
2013-03-21 15:52:00,46.0,36.0,30.19,SSW,207,0.0,0.0,67,0.00,,,0.05,,2013-03-21 22:52:00,
2013-03-21 16:02:00,46.0,34.0,30.19,WNW,298,0.0,0.0,63,0.00,,,0.05,,2013-03-21 23:02:00,
2013-03-21 16:12:00,46.0,34.0,30.19,WNW,298,0.0,0.0,63,0.00,,,0.05,,2013-03-21 23:12:00,
2013-03-21 16:21:00,46.0,34.0,30.18,West,260,0.0,0.0,62,0.00,,,0.05,,2013-03-21 23:21:00,
2013-03-21 16:32:00,45.0,34.0,30.19,North,357,0.0,0.0,66,0.00,,,0.05,,2013-03-21 23:32:00,
2013-03-21 16:42:00,45.0,34.0,30.19,North,357,0.0,0.0,66,0.00,,,0.05,,2013-03-21 23:42:00,
2013-03-21 16:52:00,45.0,36.0,30.19,NNW,335,0.0,0.0,71,0.00,,,0.05,,2013-03-21 23:52:00,
2013-03-21 17:01:00,46.0,35.0,30.19,NNW,328,0.0,0.0,64,0.00,,,0.05,,2013-03-22 00:01:00,
2013-03-21 17:11:00,46.0,35.0,30.19,NNW,328,0.0,0.0,64,0.00,,,0.05,,2013-03-22 00:11:00,
2013-03-21 17:21:00,46.0,34.0,30.18,NW,314,0.0,0.0,62,0.00,,,0.05,,2013-03-22 00:21:00,
2013-03-21 17:30:00,45.0,34.0,30.20,NNW,336,0.0,0.0,65,0.00,,,0.03,,2013-03-22 00:30:00,
2013-03-21 17:31:00,46.0,33.0,30.18,NNW,332,0.0,0.0,61,0.00,,,0.05,,2013-03-22 00:31:00,
2013-03-21 17:42:00,46.0,33.0,30.18,NNW,332,0.0,0.0,61,0.00,,,0.05,,2013-03-22 00:42:00,
2013-03-21 17:51:00,45.0,34.0,30.20,NNW,336,0.0,0.0,65,0.00,,,0.03,,2013-03-22 00:51:00,
2013-03-21 18:01:00,45.0,34.0,30.20,NNW,336,0.0,0.0,65,0.00,,,0.03,,2013-03-22 01:01:00,
2013-03-21 18:11:00,45.0,34.0,30.20,NNW,336,0.0,0.0,65,0.00,,,0.03,,2013-03-22 01:11:00,
2013-03-21 18:21:00,45.0,34.0,30.20,NNW,336,0.0,0.0,65,0.00,,,0.03,,2013-03-22 01:21:00,